Weather History for Brisbane, QU

Change the Weather History Date:

Saturday, March 1, 2014

  Actual Average Record
Temperature  
Mean Temperature 74 °F -  
Max Temperature 82 °F 83 °F 87 °F (2002)
Min Temperature 67 °F 67 °F 60 °F (2008)
Cooling Degree Days 10    
Growing Degree Days 24 (Base 50)    
Moisture  
Dew Point 63 °F    
Average Humidity 63    
Maximum Humidity 94    
Minimum Humidity 36    
Precipitation  
Precipitation 0.00 in 0.18 in - ()
Sea Level Pressure  
Sea Level Pressure 29.98 in    
Wind  
Wind Speed 8 mph ()    
Max Wind Speed 15 mph    
Max Gust Speed -    
Visibility 7.3 miles    
Events      
Averages and records for this station are not official NWS values.
T = Trace of Precipitation, MM = Missing Value Source: Averaged Metar Reports

Daily Weather History Graph

Daily Weather History Graph

Search for Another Location

Airport:

Trip Planner

Search our weather history database for the weather conditions in past years. The results will help you decide how hot, cold, wet, or windy it might be!

Date:

Astronomy

Mar. 01, 2014 Rise Set
Actual Time 5:39 AM EST 6:19 PM EST
Civil Twilight 5:16 AM EST 6:43 PM EST
Nautical Twilight 4:48 AM EST 7:10 PM EST
Astronomical Twilight 4:20 AM EST 7:39 PM EST
Moon 5:13 AM EST (3/1) 6:01 PM EST (3/1)
Length of Visible Light 13h 26m
Length of Day
12h 39m
Waning Crescent, 0% of the Moon is Illuminated
Mar 1
Waning Crescent
Mar 1
New
Mar 8
First Quarter
Mar 17
Full
Mar 24
Last Quarter

Hourly Weather History & Observations

Time (EST) Temp. Heat Index Dew Point Humidity Pressure Visibility Wind Dir Wind Speed Gust Speed Precip Events Conditions
12:00 AM 75 °F - 62 °F 54% 30.04 in 16 mi ESE 9.2 mph - -   Partly Cloudy
12:00 AM 75.2 °F - 62.6 °F 65% 30.04 in 6.2 mi ESE 9.2 mph - N/A   Partly Cloudy
12:30 AM 75.2 °F - 62.6 °F 65% 30.04 in 6.2 mi East 6.9 mph - N/A   Mostly Cloudy
1:00 AM 74 °F - 63 °F 59% 30.02 in - East 6.9 mph - -  
1:00 AM 75.2 °F - 62.6 °F 65% 30.01 in 6.2 mi East 6.9 mph - N/A   Mostly Cloudy
1:30 AM 71.6 °F - 62.6 °F 73% 30.01 in 6.2 mi ESE 5.8 mph - N/A   Scattered Clouds
2:00 AM 73.4 °F - 64.4 °F 73% 29.98 in 6.2 mi East 5.8 mph - N/A   Mostly Cloudy
2:30 AM 75.2 °F - 62.6 °F 65% 29.98 in 6.2 mi East 8.1 mph - N/A   Mostly Cloudy
3:00 AM 71 °F - 64 °F 73% 29.99 in 16 mi South 5.8 mph - -   Partly Cloudy
3:00 AM 71.6 °F - 64.4 °F 78% 29.98 in 6.2 mi South 5.8 mph - N/A   Mostly Cloudy
3:30 AM 71.6 °F - 64.4 °F 78% 29.98 in 6.2 mi South 5.8 mph - N/A   Mostly Cloudy
4:00 AM 70 °F - 65 °F 80% 29.98 in - South 5.8 mph - -  
4:00 AM 69.8 °F - 64.4 °F 83% 29.98 in 6.2 mi South 5.8 mph - N/A   Mostly Cloudy
4:30 AM 69.8 °F - 64.4 °F 83% 29.98 in 6.2 mi SSW 4.6 mph - N/A   Scattered Clouds
5:00 AM 68.0 °F - 64.4 °F 88% 29.98 in 6.2 mi SSW 8.1 mph - N/A   Scattered Clouds
5:30 AM 68.0 °F - 66.2 °F 94% 29.98 in 6.2 mi SSW 6.9 mph - N/A   Scattered Clouds
6:00 AM 68 °F - 65 °F 88% 29.99 in 16 mi SSW 6.9 mph - -   Partly Cloudy
6:00 AM 68.0 °F - 66.2 °F 94% 29.98 in 6.2 mi SSW 6.9 mph - N/A   Partly Cloudy
6:30 AM 68.0 °F - 66.2 °F 94% 29.98 in 6.2 mi SSW 6.9 mph - N/A   Partly Cloudy
7:00 AM 71 °F - 66 °F 80% 29.99 in - SSW 6.9 mph - -  
7:00 AM 69.8 °F - 66.2 °F 88% 29.98 in 6.2 mi SSW 6.9 mph - N/A   Partly Cloudy
7:30 AM 71.6 °F - 66.2 °F 83% 29.98 in 6.2 mi SSW 8.1 mph - N/A   Partly Cloudy
8:00 AM 75.2 °F - 64.4 °F 69% 29.98 in 6.2 mi South 4.6 mph - N/A   Partly Cloudy
8:30 AM 78.8 °F - 60.8 °F 54% 29.98 in 6.2 mi SE 8.1 mph - N/A   Partly Cloudy
9:00 AM 79 °F - 60 °F 43% 30.01 in 16 mi East 9.2 mph - -   Partly Cloudy
9:00 AM 78.8 °F - 60.8 °F 54% 30.01 in 6.2 mi East 9.2 mph - N/A   Scattered Clouds
9:30 AM 80.6 °F 81.5 °F 60.8 °F 51% 30.01 in 6.2 mi East 10.4 mph - N/A   Scattered Clouds
10:00 AM 80 °F - 61 °F 42% 30.01 in - ESE 10.4 mph - -  
10:00 AM 80.6 °F 81.5 °F 60.8 °F 51% 30.01 in 6.2 mi ESE 10.4 mph - N/A   Scattered Clouds
10:30 AM 80.6 °F 81.5 °F 60.8 °F 51% 30.01 in 6.2 mi East 11.5 mph - N/A   Scattered Clouds
11:00 AM 80.6 °F 81.5 °F 60.8 °F 51% 29.98 in 6.2 mi ESE 11.5 mph - N/A   Scattered Clouds
11:30 AM 82.4 °F 82.9 °F 60.8 °F 48% 29.98 in 6.2 mi East 10.4 mph - N/A   Partly Cloudy
12:00 PM 82 °F - 59 °F 36% 29.98 in 12 mi East 10.4 mph - -   Partly Cloudy
12:00 PM 82.4 °F 82.5 °F 59.0 °F 45% 29.98 in 6.2 mi East 10.4 mph - N/A   Partly Cloudy
12:30 PM 82.4 °F 82.5 °F 59.0 °F 45% 29.95 in 6.2 mi East 10.4 mph - N/A   Partly Cloudy
1:00 PM 82 °F - 61 °F 39% 29.96 in - ENE 11.5 mph - -  
1:00 PM 82.4 °F 82.9 °F 60.8 °F 48% 29.95 in 6.2 mi ENE 11.5 mph - N/A   Partly Cloudy
1:30 PM 80.6 °F 81.8 °F 62.6 °F 54% 29.95 in 6.2 mi ENE 11.5 mph - N/A   Partly Cloudy
2:00 PM 82.4 °F 83.9 °F 64.4 °F 54% 29.92 in 6.2 mi East 10.4 mph - N/A   Partly Cloudy
2:30 PM 82.4 °F 83.4 °F 62.6 °F 51% 29.92 in 6.2 mi ENE 12.7 mph - N/A   Partly Cloudy
3:00 PM 81 °F - 65 °F 49% 29.94 in 12 mi ENE 15.0 mph - -   Haze
3:00 PM 80.6 °F 82.3 °F 64.4 °F 58% 29.92 in 6.2 mi ENE 15.0 mph - N/A   Partly Cloudy
3:30 PM 78.8 °F - 64.4 °F 61% 29.92 in 6.2 mi ENE 12.7 mph - N/A   Scattered Clouds
4:00 PM 80 °F - 66 °F 53% 29.94 in - ENE 12.7 mph - -  
4:00 PM 80.6 °F 82.7 °F 66.2 °F 61% 29.92 in 6.2 mi ENE 12.7 mph - N/A   Scattered Clouds
4:30 PM 78.8 °F - 62.6 °F 57% 29.92 in 6.2 mi East 11.5 mph - N/A   Scattered Clouds
5:00 PM 78.8 °F - 64.4 °F 61% 29.92 in 6.2 mi ENE 11.5 mph - N/A   Scattered Clouds
5:30 PM 77.0 °F - 62.6 °F 61% 29.95 in 6.2 mi East 9.2 mph - N/A   Partly Cloudy
6:00 PM 77 °F - 63 °F 53% 29.96 in 11 mi East 10.4 mph - -   Haze
6:00 PM 77.0 °F - 62.6 °F 61% 29.95 in 6.2 mi East 10.4 mph - N/A   Scattered Clouds
6:30 PM 77.0 °F - 64.4 °F 65% 29.95 in 6.2 mi East 8.1 mph - N/A   Partly Cloudy
7:00 PM 76 °F - 62 °F 53% 29.98 in - East 9.2 mph - -  
7:00 PM 77.0 °F - 62.6 °F 61% 29.98 in 6.2 mi East 9.2 mph - N/A   Partly Cloudy
7:30 PM 75.2 °F - 62.6 °F 65% 29.98 in 6.2 mi East 9.2 mph - N/A   Partly Cloudy
8:00 PM 75.2 °F - 62.6 °F 65% 29.98 in 6.2 mi East 8.1 mph - N/A   Partly Cloudy
8:30 PM 75.2 °F - 62.6 °F 65% 29.98 in 6.2 mi East 8.1 mph - N/A   Partly Cloudy
9:00 PM 75 °F - 63 °F 57% 30.01 in 11 mi ESE 8.1 mph - -   Haze
9:00 PM 75.2 °F - 62.6 °F 65% 30.01 in 6.2 mi ESE 8.1 mph - N/A   Partly Cloudy
9:30 PM 75.2 °F - 62.6 °F 65% 30.01 in 6.2 mi ESE 8.1 mph - N/A   Partly Cloudy
10:00 PM 75 °F - 64 °F 59% 30.00 in - ESE 8.1 mph - -  
10:00 PM 75.2 °F - 64.4 °F 69% 29.98 in 6.2 mi ESE 8.1 mph - N/A   Partly Cloudy
10:30 PM 75.2 °F - 62.6 °F 65% 30.01 in 6.2 mi ESE 8.1 mph - N/A   Partly Cloudy
11:00 PM 75.2 °F - 64.4 °F 69% 29.98 in 6.2 mi ESE 8.1 mph - N/A   Partly Cloudy
11:30 PM 75.2 °F - 64.4 °F 69% 29.98 in 6.2 mi East 8.1 mph - N/A   Scattered Clouds